CYGFM02

Last updated on Sat Aug 15 2026 00:02:40 GMT+0000 (Coordinated Universal Time)

1 41886U 16078C 26226.59038198 .00029405 00000+0 25178-3 0 9995 2 41886 34.9389 190.2835 0003472 14.8314 345.2515 15.68369371538336
UTC large
Height (km)
Speed (km/s)
/
Latitude / Longitude
Inclination (degrees)
Orbital Period (minutes)
Azimuth
Elevation
Range (km)
Doppler Factor

Next 0 passes for location: London (51.5072 / 0.1276)

No passes found over London.
CYGFM02